COSMOS 1275 DEB, 12739

Orbit data source: Space-Track

COSMOS 1275 DEB, 12739 is space debris in LEO originally from a launch on Thu, 04 Jun 1981 UTC launched from the Plesetsk Missile And Space Complex (PKMTR). Debris objects in space refer to the collection of defunct objects orbiting the Earth. Examples of debris include non-operational satellites, rocket bodies, and fragments generated from explosions, collisions, or faulty payload assembly.

Loading next visibility...
Identifier
12739, 1981-053CG
Orbit
LEO
Country
Flag of CISCIS
Related business
Manufacturer
Unknown
Mission
Spacecraft
Bus & Motor
Unknown
Mass
Unknown
Launch date (UTC)
1981-06-04 (45 years ago)
Launch vehicle
Unknown
Launch site
Plesetsk Missile And Space Complex (PKMTR)
Object type
Payload
Rocket body
Debris
Shape & HBR
Unknown shape, 0.1 m
Radar Cross Section
Medium (>0.1 m² and <1 m²)

Expand to show TLE details & history
Last TLE update: 17 hours ago

TLE from 17 hours ago
0 COSMOS 1275 DEB
1 12739U 81053CG  26149.79835888  .00006589  00000-0  18391-2 0  9999
2 12739  82.9316 288.5157 0006373 198.1498 161.9472 14.46141419302907
Epoch: 2026-05-29T19:09Z
TLE epoch observation values (Epoch: 2026-05-29T19:09:38.207Z)
Latitude
0.00007°
Longitude
113.78294°
Altitude
745.591 km
Speed
7.48 km/s
True Right ascension
19h 14m 03s
True Declination
0° 00' 00"
Sunlit
Object was in full shadow at epoch
Visualization orbit readout
Latitude
Unknown
Longitude
Unknown
Altitude
Unknown
Speed
Unknown
Apparent Right ascension
Unknown
Apparent Declination
Unknown
Sunlit
N/A
Visualization observer readout
Local Sidereal Time
22:00:35
Azimuth
Unknown
Elevation
Unknown
Doppler factor
Unknown
Orbital elements
Apogee altitude
739.864 km
Perigee altitude
730.797 km
Semi-major axis
7,113.468 km
Eccentricity
0.00064
Inclination
82.9316°
RAAN
288.5157°
Arg. of periapsis
198.1498°
True anomaly
161.96981°
Mean anomaly
161.9472°
Eccentric anomaly
161.95851°
Mean motion
3.6176 °/min
Orbital period
99.51 mins
BSTAR
0.0018391
Loading maneuver chart data...
Computing Atmospheric mass density...
Loading historical data...
Loading historical data...
Loading historical data...
Loading historical data...
Loading historical data...
Loading historical data...
Loading historical data...

Documentation

Showing up to 5 results
|